• Join FlightAware (Why Join?)
  • Login
  • US Flag 
02:07AM EST


 

Airport Tracker/Info


-or-


 

Live Flight TrackerFlight Track Log ✈ N559LC ✈ 14-Feb-2014 ✈ KPTK - KMMU

Flight Track Log - Related Links

Times and Time Zones

All times are in EST time to prevent confusion due to time zone crossing. See the N559LC flight status page for this flight to view local times or setup timezone preferences in your user account.

Time Position Orientation Groundspeed Altitude Reporting Facility
EST Latitude Longitude Course Direction KTS MPH feet Rate Location/Type
08:26PM 42.6858 -83.5036 297° West 226 260 3,600  Level Cleveland Center
08:27PM 42.7106 -83.4775 38° Northeast 244 281 4,900 3,934 Climbing Cleveland Center
08:27PM 42.7156 -83.4169 84° East 281 323 7,600 4,033 Climbing Cleveland Center
08:28PM 42.7183 -83.3667 86° East 276 318 9,000 2,600 Climbing Cleveland Center
08:29PM 42.7272 -83.2497 84° East 320 368 11,500 2,565 Climbing Cleveland Center
08:30PM 42.7067 -83.1094 101° East 378 435 14,300 2,903 Climbing Cleveland Center
08:31PM 42.6444 -82.9853 124° Southeast 394 453 17,500 3,048 Climbing Cleveland Center
08:32PM 42.5803 -82.8594 125° Southeast 402 463 20,600 2,806 Climbing Cleveland Center
08:33PM 42.5122 -82.7286 125° Southeast 417 480 23,300 2,371 Climbing Cleveland Center
08:34PM 42.4425 -82.5931 125° Southeast 434 499 25,500 2,293 Climbing Cleveland Center
08:35PM 42.3725 -82.4003 116° Southeast 480 552 28,000 1,951 Climbing Cleveland Center
08:36PM 42.3575 -82.2044 96° East 519 597 29,500 2,032 Climbing Cleveland Center
08:37PM 42.3500 -81.9989 93° East 539 620 32,200 3,145 Climbing Cleveland Center
08:38PM 42.3422 -81.8075 93° East 508 585 36,000 2,806 Climbing Cleveland Center
08:39PM 42.3339 -81.6267 94° East 481 554 38,000 1,161 Climbing Cleveland Center
08:40PM 42.3247 -81.4503 94° East 469 540 38,400 488 Climbing Cleveland Center
08:41PM 42.3164 -81.2639 93° East 484 557 39,000 585 Climbing Cleveland Center
08:42PM 42.3064 -81.0758 94° East 495 570 39,600 484 Climbing Cleveland Center
08:43PM 42.2953 -80.8547 94° East 500 575 40,000 194 Climbing Cleveland Center
08:44PM 42.2850 -80.6644 94° East 503 579 40,000  Level Cleveland Center
08:45PM 42.2742 -80.4717 94° East 508 585 40,000  Level Cleveland Center
08:46PM 42.2483 -80.2753 100° East 524 603 40,000  Level Cleveland Center
08:47PM 42.2153 -80.0819 103° East 523 602 40,000  Level Cleveland Center
08:48PM 42.1842 -79.9050 103° East 521 600 40,000  Level Cleveland Center
08:49PM 42.1444 -79.6758 103° East 524 603 40,000  Level Cleveland Center
08:50PM 42.1117 -79.4886 103° East 518 596 40,000  Level Cleveland Center
08:51PM 42.0792 -79.2986 103° East 520 598 40,000  Level Cleveland Center
08:52PM 42.0447 -79.1097 104° East 521 600 40,000  Level Cleveland Center
08:53PM 42.0119 -78.9214 103° East 519 597 40,000  Level Cleveland Center
08:54PM 41.9783 -78.7342 104° East 516 594 40,000  Level Cleveland Center
08:56PM 41.9436 -78.5442 104° East 522 601 40,000  Level Cleveland Center
08:57PM 41.9025 -78.3183 104° East 520 598 40,000  Level Cleveland Center
08:58PM 41.8661 -78.1294 104° East 521 600 40,000 -581 Level Cleveland Center
08:59PM 41.8311 -77.9400 104° East 523 602 38,800 -1,632 Descending Cleveland Center
09:00PM 41.7944 -77.7497 104° East 527 606 36,600 -1,839 Descending Cleveland Center
09:01PM 41.7583 -77.5603 104° East 526 605 35,000 -780 Descending Cleveland Center
09:02PM 41.7178 -77.3550 105° East 516 594 35,000 -683 Level Cleveland Center
09:03PM 41.6811 -77.1692 105° East 518 596 33,600 -1,597 Descending Cleveland Center
09:04PM 41.6275 -76.9681 110° East 579 666 31,700 -1,935 Descending Cleveland Center
09:05PM 41.5697 -76.7547 110° East 561 646 29,600 -1,925 Descending Cleveland Center
09:06PM 41.5125 -76.5417 110° East 543 625 27,400 -1,818 Descending New York Center
09:07PM 41.4575 -76.3403 110° East 531 611 25,600 -1,800 Descending New York Center
09:08PM 41.4072 -76.1675 111° Southeast 517 595 23,800 -1,750 Descending New York Center
09:09PM 41.3606 -76.0006 110° East 497 572 22,100 -1,500 Descending New York Center
09:10PM 41.3167 -75.8564 112° Southeast 486 559 20,800 -1,450 Descending New York Center
09:11PM 41.2736 -75.6931 109° East 471 542 19,200 -2,200 Descending New York Center
09:12PM 41.2217 -75.5347 114° Southeast 466 536 16,400 -2,750 Descending New York Center
09:13PM 41.1733 -75.3908 114° Southeast 445 512 13,700 -2,750 Descending New York Center
09:14PM 41.1247 -75.2442 114° Southeast 415 478 10,900 -2,450 Descending New York Center
09:15PM 41.0856 -75.1233 113° Southeast 370 426 8,800 -2,050 Descending New York Center
09:16PM 41.0581 -75.0225 110° East 333 383 6,800 -1,350 Descending New York Center
09:17PM 41.0453 -74.9117 99° East 308 354 6,100 -450 Descending New York Center
09:18PM 41.0303 -74.8061 101° East 297 342 5,900 -1,000 Descending New York Center
09:19PM 41.0153 -74.6925 100° East 291 335 4,100 -1,400 Descending New York Center
09:20PM 41.0036 -74.6011 100° East 280 322 3,100 -500 Descending New York Center
09:21PM 40.9942 -74.5044 97° East 255 293 3,100  Level New York Center
09:22PM 40.9839 -74.4350 101° East 226 260 3,100 -400 Level New York Center
09:23PM 40.9569 -74.3650 117° Southeast 207 238 2,300 -645 Descending New York Center
09:24PM 40.9333 -74.3500 154° Southeast 169 194 2,100 -207 Descending New York TRACON
09:24PM 40.9000 -74.3500 180° South 164 189 2,000 -400 Descending New York TRACON
09:26PM 40.8500 -74.3667 194° South 139 160 1,300 -476 Descending New York TRACON
09:27PM 40.8167 -74.3833 201° Southwest 132 152 1,000 -300 Descending New York TRACON
09:30PM 40.7833 -74.4000 128° Southeast  Level FlightAware Approximate
09:37PM 40.7993 -74.4149 128° Southeast  Level Estimated